[Date Prev][Date Next][Thread Prev][Thread Next] - [Date Index][Thread Index][Author Index]

2 Line ISS Keps 2-16



ISS
1 25544U 98067A   05047.46528002 -.00030812  00000-0 -24869-3 0  8260
2 25544  51.6448 158.2709 0003845 115.0560 295.3052 15.69820694356707
----
Via the sarex mailing list at AMSAT.ORG courtesy of AMSAT-NA.
To unsubscribe, send "unsubscribe sarex" to Majordomo@amsat.org



AMSAT Top AMSAT Home